Year,Month,Day,Hour,Minute,Value (Times are PST for temperature in C)
2009,07,10,00,00,13.40
2009,07,10,00,01,13.30
2009,07,10,00,02,13.30
2009,07,10,00,03,13.30
2009,07,10,00,04,13.30
2009,07,10,00,05,13.30
2009,07,10,00,06,13.30
2009,07,10,00,07,13.30
2009,07,10,00,08,13.30
2009,07,10,00,09,13.30
2009,07,10,00,10,13.20
2009,07,10,00,11,13.20
2009,07,10,00,12,13.20
2009,07,10,00,13,13.20
2009,07,10,00,14,13.10
2009,07,10,00,15,13.10
2009,07,10,00,16,13.10
2009,07,10,00,17,13.10
2009,07,10,00,18,13.00
2009,07,10,00,19,13.00
2009,07,10,00,20,13.00
2009,07,10,00,21,13.00
2009,07,10,00,22,13.00
2009,07,10,00,23,13.00
2009,07,10,00,24,13.00
2009,07,10,00,25,13.00
2009,07,10,00,26,12.90
2009,07,10,00,27,12.90
2009,07,10,00,28,12.90
2009,07,10,00,29,12.90
2009,07,10,00,30,12.90
2009,07,10,00,31,12.80
2009,07,10,00,32,12.80
2009,07,10,00,33,12.80
2009,07,10,00,34,12.80
2009,07,10,00,35,12.80
2009,07,10,00,36,12.80
2009,07,10,00,37,12.70
2009,07,10,00,38,12.70
2009,07,10,00,39,12.70
2009,07,10,00,40,12.70
2009,07,10,00,41,12.60
2009,07,10,00,42,12.60
2009,07,10,00,43,12.60
2009,07,10,00,44,12.60
2009,07,10,00,45,12.60
2009,07,10,00,46,12.50
2009,07,10,00,47,12.50
2009,07,10,00,48,12.50
2009,07,10,00,49,12.50
2009,07,10,00,50,12.50
2009,07,10,00,51,12.50
2009,07,10,00,52,12.50
2009,07,10,00,53,12.50
2009,07,10,00,54,12.50
2009,07,10,00,55,12.50
2009,07,10,00,56,12.50
2009,07,10,00,57,12.50
2009,07,10,00,58,12.50
2009,07,10,00,59,12.40
2009,07,10,01,00,12.40
2009,07,10,01,01,12.40
2009,07,10,01,02,12.40
2009,07,10,01,03,12.40
2009,07,10,01,04,12.30
2009,07,10,01,05,12.30
2009,07,10,01,06,12.30
2009,07,10,01,07,12.30
2009,07,10,01,08,12.30
2009,07,10,01,09,12.30
2009,07,10,01,10,12.30
2009,07,10,01,11,12.20
2009,07,10,01,12,12.20
2009,07,10,01,13,12.20
2009,07,10,01,14,12.20
2009,07,10,01,15,12.20
2009,07,10,01,16,12.10
2009,07,10,01,17,12.10
2009,07,10,01,18,12.10
2009,07,10,01,19,12.10
2009,07,10,01,20,12.10
2009,07,10,01,21,12.10
2009,07,10,01,22,12.10
2009,07,10,01,23,12.00
2009,07,10,01,24,12.00
2009,07,10,01,25,12.00
2009,07,10,01,26,12.00
2009,07,10,01,27,12.00
2009,07,10,01,28,12.00
2009,07,10,01,29,12.00
2009,07,10,01,30,12.00
2009,07,10,01,31,12.00
2009,07,10,01,32,12.00
2009,07,10,01,33,12.00
2009,07,10,01,34,12.00
2009,07,10,01,35,12.00
2009,07,10,01,36,12.00
2009,07,10,01,37,12.00
2009,07,10,01,38,12.00
2009,07,10,01,39,12.00
2009,07,10,01,40,12.00
2009,07,10,01,41,12.00
2009,07,10,01,42,12.00
2009,07,10,01,43,11.90
2009,07,10,01,44,11.90
2009,07,10,01,45,11.90
2009,07,10,01,46,11.80
2009,07,10,01,47,11.80
2009,07,10,01,48,11.80
2009,07,10,01,49,11.80
2009,07,10,01,50,11.80
2009,07,10,01,51,11.80
2009,07,10,01,52,11.80
2009,07,10,01,53,11.80
2009,07,10,01,54,11.80
2009,07,10,01,55,11.80
2009,07,10,01,56,11.80
2009,07,10,01,57,11.80
2009,07,10,01,58,11.80
2009,07,10,01,59,11.80
2009,07,10,02,00,11.70
2009,07,10,02,01,11.70
2009,07,10,02,02,11.70
2009,07,10,02,03,11.70
2009,07,10,02,04,11.70
2009,07,10,02,05,11.70
2009,07,10,02,06,11.70
2009,07,10,02,07,11.70
2009,07,10,02,08,11.70
2009,07,10,02,09,11.70
2009,07,10,02,10,11.70
2009,07,10,02,11,11.70
2009,07,10,02,12,11.70
2009,07,10,02,13,11.70
2009,07,10,02,14,11.70
2009,07,10,02,15,11.70
2009,07,10,02,16,11.70
2009,07,10,02,17,11.70
2009,07,10,02,18,11.70
2009,07,10,02,19,11.70
2009,07,10,02,20,11.70
2009,07,10,02,21,11.70
2009,07,10,02,22,11.70
2009,07,10,02,23,11.70
2009,07,10,02,24,11.60
2009,07,10,02,25,11.60
2009,07,10,02,26,11.60
2009,07,10,02,27,11.60
2009,07,10,02,28,11.60
2009,07,10,02,29,11.60
2009,07,10,02,30,11.60
2009,07,10,02,31,11.60
2009,07,10,02,32,11.60
2009,07,10,02,33,11.60
2009,07,10,02,34,11.60
2009,07,10,02,35,11.60
2009,07,10,02,36,11.60
2009,07,10,02,37,11.60
2009,07,10,02,38,11.60
2009,07,10,02,39,11.50
2009,07,10,02,40,11.40
2009,07,10,02,41,11.40
2009,07,10,02,42,11.40
2009,07,10,02,43,11.40
2009,07,10,02,44,11.40
2009,07,10,02,45,11.40
2009,07,10,02,46,11.40
2009,07,10,02,47,11.40
2009,07,10,02,48,11.30
2009,07,10,02,49,11.30
2009,07,10,02,50,11.30
2009,07,10,02,51,11.30
2009,07,10,02,52,11.30
2009,07,10,02,53,11.30
2009,07,10,02,54,11.20
2009,07,10,02,55,11.20
2009,07,10,02,56,11.20
2009,07,10,02,57,11.20
2009,07,10,02,58,11.20
2009,07,10,02,59,11.20
2009,07,10,03,00,11.20
2009,07,10,03,01,11.20
2009,07,10,03,02,11.10
2009,07,10,03,03,11.10
2009,07,10,03,04,11.10
2009,07,10,03,05,11.10
2009,07,10,03,06,11.10
2009,07,10,03,07,11.10
2009,07,10,03,08,11.10
2009,07,10,03,09,11.10
2009,07,10,03,10,11.10
2009,07,10,03,11,11.10
2009,07,10,03,12,11.10
2009,07,10,03,13,11.10
2009,07,10,03,14,11.10
2009,07,10,03,15,11.10
2009,07,10,03,16,11.10
2009,07,10,03,17,11.10
2009,07,10,03,18,11.10
2009,07,10,03,19,10.90
2009,07,10,03,20,10.90
2009,07,10,03,21,10.90
2009,07,10,03,22,10.90
2009,07,10,03,23,10.90
2009,07,10,03,24,10.90
2009,07,10,03,25,10.90
2009,07,10,03,26,10.90
2009,07,10,03,27,10.90
2009,07,10,03,28,10.90
2009,07,10,03,29,10.90
2009,07,10,03,30,10.90
2009,07,10,03,31,10.80
2009,07,10,03,32,10.80
2009,07,10,03,33,10.80
2009,07,10,03,34,10.70
2009,07,10,03,35,10.70
2009,07,10,03,36,10.70
2009,07,10,03,37,10.70
2009,07,10,03,38,10.60
2009,07,10,03,39,10.60
2009,07,10,03,40,10.60
2009,07,10,03,41,10.60
2009,07,10,03,42,10.60
2009,07,10,03,43,10.60
2009,07,10,03,44,10.60
2009,07,10,03,45,10.60
2009,07,10,03,46,10.60
2009,07,10,03,47,10.60
2009,07,10,03,48,10.60
2009,07,10,03,49,10.60
2009,07,10,03,50,10.60
2009,07,10,03,51,10.60
2009,07,10,03,52,10.60
2009,07,10,03,53,10.60
2009,07,10,03,54,10.60
2009,07,10,03,55,10.60
2009,07,10,03,56,10.60
2009,07,10,03,57,10.60
2009,07,10,03,58,10.60
2009,07,10,03,59,10.60
2009,07,10,04,00,10.60
2009,07,10,04,01,10.60
2009,07,10,04,02,10.60
2009,07,10,04,03,10.60
2009,07,10,04,04,10.60
2009,07,10,04,05,10.60
2009,07,10,04,06,10.60
2009,07,10,04,07,10.60
2009,07,10,04,08,10.60
2009,07,10,04,09,10.60
2009,07,10,04,10,10.50
2009,07,10,04,11,10.40
2009,07,10,04,12,10.40
2009,07,10,04,13,10.40
2009,07,10,04,14,10.40
2009,07,10,04,15,10.40
2009,07,10,04,16,10.40
2009,07,10,04,17,10.40
2009,07,10,04,18,10.40
2009,07,10,04,19,10.40
2009,07,10,04,20,10.40
2009,07,10,04,21,10.40
2009,07,10,04,22,10.40
2009,07,10,04,23,10.30
2009,07,10,04,24,10.30
2009,07,10,04,25,10.30
2009,07,10,04,26,10.30
2009,07,10,04,27,10.30
2009,07,10,04,28,10.30
2009,07,10,04,29,10.40
2009,07,10,04,30,10.40
2009,07,10,04,31,10.40
2009,07,10,04,32,10.40
2009,07,10,04,33,10.40
2009,07,10,04,34,10.40
2009,07,10,04,35,10.40
2009,07,10,04,36,10.40
2009,07,10,04,37,10.30
2009,07,10,04,38,10.30
2009,07,10,04,39,10.30
2009,07,10,04,40,10.30
2009,07,10,04,41,10.20
2009,07,10,04,42,10.20
2009,07,10,04,43,10.20
2009,07,10,04,44,10.20
2009,07,10,04,45,10.20
2009,07,10,04,46,10.20
2009,07,10,04,47,10.10
2009,07,10,04,48,10.10
2009,07,10,04,49,10.10
2009,07,10,04,50,10.10
2009,07,10,04,51,10.10
2009,07,10,04,52,10.10
2009,07,10,04,53,10.10
2009,07,10,04,54,10.10
2009,07,10,04,55,10.10
2009,07,10,04,56,10.10
2009,07,10,04,57,10.10
2009,07,10,04,58,10.10
2009,07,10,04,59,10.10
2009,07,10,05,00,10.10
2009,07,10,05,01,10.10
2009,07,10,05,02,10.10
2009,07,10,05,03,10.10
2009,07,10,05,04,10.10
2009,07,10,05,05,10.10
2009,07,10,05,06,10.10
2009,07,10,05,07,10.10
2009,07,10,05,08,10.10
2009,07,10,05,09,10.10
2009,07,10,05,10,10.10
2009,07,10,05,11,10.10
2009,07,10,05,12,10.10
2009,07,10,05,13,10.00
2009,07,10,05,14,9.90
2009,07,10,05,15,9.90
2009,07,10,05,16,9.90
2009,07,10,05,17,9.90
2009,07,10,05,18,9.90
2009,07,10,05,19,9.90
2009,07,10,05,20,9.90
2009,07,10,05,21,9.90
2009,07,10,05,22,9.90
2009,07,10,05,23,9.90
2009,07,10,05,24,9.90
2009,07,10,05,25,9.90
2009,07,10,05,26,9.90
2009,07,10,05,27,9.90
2009,07,10,05,28,9.90
2009,07,10,05,29,9.90
2009,07,10,05,30,9.90
2009,07,10,05,31,9.90
2009,07,10,05,32,9.90
2009,07,10,05,33,9.90
2009,07,10,05,34,9.90
2009,07,10,05,35,9.90
2009,07,10,05,36,9.90
2009,07,10,05,37,9.90
2009,07,10,05,38,9.90
2009,07,10,05,39,9.90
2009,07,10,05,40,9.90
2009,07,10,05,41,10.00
2009,07,10,05,42,10.10
2009,07,10,05,43,10.10
2009,07,10,05,44,10.10
2009,07,10,05,45,10.10
2009,07,10,05,46,10.10
2009,07,10,05,47,10.10
2009,07,10,05,48,10.10
2009,07,10,05,49,10.10
2009,07,10,05,50,10.10
2009,07,10,05,51,10.10
2009,07,10,05,52,10.00
2009,07,10,05,53,9.90
2009,07,10,05,54,9.90
2009,07,10,05,55,9.90
2009,07,10,05,56,9.90
2009,07,10,05,57,9.90
2009,07,10,05,58,10.00
2009,07,10,05,59,10.10
2009,07,10,06,00,10.10
2009,07,10,06,01,10.10
2009,07,10,06,02,10.10
2009,07,10,06,03,10.10
2009,07,10,06,04,10.20
2009,07,10,06,05,10.20
2009,07,10,06,06,10.20
2009,07,10,06,07,10.20
2009,07,10,06,08,10.30
2009,07,10,06,09,10.30
2009,07,10,06,10,10.30
2009,07,10,06,11,10.40
2009,07,10,06,12,10.40
2009,07,10,06,13,10.40
2009,07,10,06,14,10.40
2009,07,10,06,15,10.50
2009,07,10,06,16,10.60
2009,07,10,06,17,10.60
2009,07,10,06,18,10.60
2009,07,10,06,19,10.60
2009,07,10,06,20,10.60
2009,07,10,06,21,10.70
2009,07,10,06,22,10.70
2009,07,10,06,23,10.70
2009,07,10,06,24,10.80
2009,07,10,06,25,10.90
2009,07,10,06,26,10.90
2009,07,10,06,27,11.00
2009,07,10,06,28,11.10
2009,07,10,06,29,11.10
2009,07,10,06,30,11.10
2009,07,10,06,31,11.20
2009,07,10,06,32,11.20
2009,07,10,06,33,11.30
2009,07,10,06,34,11.40
2009,07,10,06,35,11.40
2009,07,10,06,36,11.60
2009,07,10,06,37,11.60
2009,07,10,06,38,11.70
2009,07,10,06,39,11.80
2009,07,10,06,40,11.80
2009,07,10,06,41,11.80
2009,07,10,06,42,11.90
2009,07,10,06,43,11.90
2009,07,10,06,44,12.00
2009,07,10,06,45,12.10
2009,07,10,06,46,12.20
2009,07,10,06,47,12.30
2009,07,10,06,48,12.40
2009,07,10,06,49,12.50
2009,07,10,06,50,12.60
2009,07,10,06,51,12.60
2009,07,10,06,52,12.80
2009,07,10,06,53,12.80
2009,07,10,06,54,13.00
2009,07,10,06,55,13.00
2009,07,10,06,56,13.10
2009,07,10,06,57,13.20
2009,07,10,06,58,13.20
2009,07,10,06,59,13.20
2009,07,10,07,00,13.20
2009,07,10,07,01,13.20
2009,07,10,07,02,13.20
2009,07,10,07,03,13.30
2009,07,10,07,04,13.30
2009,07,10,07,05,13.40
2009,07,10,07,06,13.50
2009,07,10,07,07,13.60
2009,07,10,07,08,13.70
2009,07,10,07,09,13.80
2009,07,10,07,10,13.90
2009,07,10,07,11,13.90
2009,07,10,07,12,14.00
2009,07,10,07,13,14.00
2009,07,10,07,14,14.00
2009,07,10,07,15,14.00
2009,07,10,07,16,14.00
2009,07,10,07,17,14.10
2009,07,10,07,18,14.10
2009,07,10,07,19,14.20
2009,07,10,07,20,14.30
2009,07,10,07,21,14.40
2009,07,10,07,22,14.50
2009,07,10,07,23,14.60
2009,07,10,07,24,14.70
2009,07,10,07,25,14.80
2009,07,10,07,26,14.80
2009,07,10,07,27,14.80
2009,07,10,07,28,14.70
2009,07,10,07,29,14.70
2009,07,10,07,30,14.70
2009,07,10,07,31,14.70
2009,07,10,07,32,14.70
2009,07,10,07,33,14.70
2009,07,10,07,34,14.70
2009,07,10,07,35,14.70
2009,07,10,07,36,14.70
2009,07,10,07,37,14.70
2009,07,10,07,38,14.70
2009,07,10,07,39,14.80
2009,07,10,07,40,14.80
2009,07,10,07,41,14.80
2009,07,10,07,42,14.80
2009,07,10,07,43,14.90
2009,07,10,07,44,14.90
2009,07,10,07,45,15.00
2009,07,10,07,46,15.10
2009,07,10,07,47,15.10
2009,07,10,07,48,15.20
2009,07,10,07,49,15.20
2009,07,10,07,50,15.30
2009,07,10,07,51,15.30
2009,07,10,07,52,15.40
2009,07,10,07,53,15.50
2009,07,10,07,54,15.50
2009,07,10,07,55,15.60
2009,07,10,07,56,15.70
2009,07,10,07,57,15.80
2009,07,10,07,58,15.90
2009,07,10,07,59,16.00
2009,07,10,08,00,16.10
2009,07,10,08,01,16.10
2009,07,10,08,02,16.20
2009,07,10,08,03,16.30
2009,07,10,08,04,16.30
2009,07,10,08,05,16.40
2009,07,10,08,06,16.60
2009,07,10,08,07,16.60
2009,07,10,08,08,16.70
2009,07,10,08,09,16.80
2009,07,10,08,10,16.80
2009,07,10,08,11,16.90
2009,07,10,08,12,16.90
2009,07,10,08,13,17.00
2009,07,10,08,14,17.10
2009,07,10,08,15,17.20
2009,07,10,08,16,17.30
2009,07,10,08,17,17.50
2009,07,10,08,18,17.60
2009,07,10,08,19,17.70
2009,07,10,08,20,17.80
2009,07,10,08,21,18.00
2009,07,10,08,22,18.10
2009,07,10,08,23,18.20
2009,07,10,08,24,18.30
2009,07,10,08,25,18.40
2009,07,10,08,26,18.50
2009,07,10,08,27,18.50
2009,07,10,08,28,18.60
2009,07,10,08,29,18.60
2009,07,10,08,30,18.70
2009,07,10,08,31,18.70
2009,07,10,08,32,18.80
2009,07,10,08,33,18.80
2009,07,10,08,34,18.80
2009,07,10,08,35,18.80
2009,07,10,08,36,18.80
2009,07,10,08,37,18.90
2009,07,10,08,38,18.90
2009,07,10,08,39,18.90
2009,07,10,08,40,19.10
2009,07,10,08,41,19.10
2009,07,10,08,42,19.10
2009,07,10,08,43,19.30
2009,07,10,08,44,19.30
2009,07,10,08,45,19.40
2009,07,10,08,46,19.40
2009,07,10,08,47,19.50
2009,07,10,08,48,19.50
2009,07,10,08,49,19.50
2009,07,10,08,50,19.40
2009,07,10,08,51,19.40
2009,07,10,08,52,19.40
2009,07,10,08,53,19.40
2009,07,10,08,54,19.40
2009,07,10,08,55,19.40
2009,07,10,08,56,19.50
2009,07,10,08,57,19.50
2009,07,10,08,58,19.50
2009,07,10,08,59,19.60
2009,07,10,09,00,19.60
2009,07,10,09,01,19.70
2009,07,10,09,02,19.70
2009,07,10,09,03,19.70
2009,07,10,09,04,19.80
2009,07,10,09,05,19.80
2009,07,10,09,06,19.80
2009,07,10,09,07,19.90
2009,07,10,09,08,19.90
2009,07,10,09,09,19.90
2009,07,10,09,10,19.90
2009,07,10,09,11,19.90
2009,07,10,09,12,19.90
2009,07,10,09,13,19.90
2009,07,10,09,14,19.90
2009,07,10,09,15,19.90
2009,07,10,09,16,19.90
2009,07,10,09,17,19.90
2009,07,10,09,18,19.90
2009,07,10,09,19,19.90
2009,07,10,09,20,19.90
2009,07,10,09,21,19.90
2009,07,10,09,22,19.90
2009,07,10,09,23,19.90
2009,07,10,09,24,19.90
2009,07,10,09,25,19.90
2009,07,10,09,26,19.90
2009,07,10,09,27,20.10
2009,07,10,09,28,20.10
2009,07,10,09,29,20.10
2009,07,10,09,30,20.00
2009,07,10,09,31,19.90
2009,07,10,09,32,19.90
2009,07,10,09,33,20.00
2009,07,10,09,34,20.00
2009,07,10,09,35,19.90
2009,07,10,09,36,19.90
2009,07,10,09,37,19.90
2009,07,10,09,38,19.90
2009,07,10,09,39,19.90
2009,07,10,09,40,19.90
2009,07,10,09,41,19.80
2009,07,10,09,42,19.70
2009,07,10,09,43,19.60
2009,07,10,09,44,19.60
2009,07,10,09,45,19.60
2009,07,10,09,46,19.50
2009,07,10,09,47,19.50
2009,07,10,09,48,19.40
2009,07,10,09,49,19.40
2009,07,10,09,50,19.40
2009,07,10,09,51,19.40
2009,07,10,09,52,19.40
2009,07,10,09,53,19.50
2009,07,10,09,54,19.60
2009,07,10,09,55,19.70
2009,07,10,09,56,19.90
2009,07,10,09,57,20.10
2009,07,10,09,58,20.20
2009,07,10,09,59,20.30
2009,07,10,10,00,20.50
2009,07,10,10,01,20.60
2009,07,10,10,02,20.70
2009,07,10,10,03,20.70
2009,07,10,10,04,20.70
2009,07,10,10,05,20.60
2009,07,10,10,06,20.70
2009,07,10,10,07,20.70
2009,07,10,10,08,20.80
2009,07,10,10,09,20.90
2009,07,10,10,10,20.90
2009,07,10,10,11,20.90
2009,07,10,10,12,20.80
2009,07,10,10,13,20.90
2009,07,10,10,14,20.80
2009,07,10,10,15,20.90
2009,07,10,10,16,20.90
2009,07,10,10,17,20.90
2009,07,10,10,18,20.90
2009,07,10,10,19,21.00
2009,07,10,10,20,21.00
2009,07,10,10,21,21.00
2009,07,10,10,22,21.00
2009,07,10,10,23,21.10
2009,07,10,10,24,21.10
2009,07,10,10,25,21.10
2009,07,10,10,26,21.00
2009,07,10,10,27,21.10
2009,07,10,10,28,21.10
2009,07,10,10,29,21.20
2009,07,10,10,30,21.10
2009,07,10,10,31,21.10
2009,07,10,10,32,21.00
2009,07,10,10,33,21.00
2009,07,10,10,34,20.90
2009,07,10,10,35,20.90
2009,07,10,10,36,20.90
2009,07,10,10,37,20.80
2009,07,10,10,38,20.80
2009,07,10,10,39,20.90
2009,07,10,10,40,20.90
2009,07,10,10,41,21.00
2009,07,10,10,42,21.00
2009,07,10,10,43,21.10
2009,07,10,10,44,21.20
2009,07,10,10,45,21.30
2009,07,10,10,46,21.30
2009,07,10,10,47,21.20
2009,07,10,10,48,21.20
2009,07,10,10,49,21.10
2009,07,10,10,50,21.10
2009,07,10,10,51,21.20
2009,07,10,10,52,21.20
2009,07,10,10,53,21.20
2009,07,10,10,54,21.10
2009,07,10,10,55,21.00
2009,07,10,10,56,20.90
2009,07,10,10,57,20.90
2009,07,10,10,58,21.00
2009,07,10,10,59,21.10
2009,07,10,11,00,21.20
2009,07,10,11,01,21.20
2009,07,10,11,02,21.20
2009,07,10,11,03,21.20
2009,07,10,11,04,21.20
2009,07,10,11,05,21.10
2009,07,10,11,06,21.00
2009,07,10,11,07,20.90
2009,07,10,11,08,20.90
2009,07,10,11,09,20.80
2009,07,10,11,10,20.90
2009,07,10,11,11,20.90
2009,07,10,11,12,20.90
2009,07,10,11,13,20.90
2009,07,10,11,14,21.10
2009,07,10,11,15,21.20
2009,07,10,11,16,21.30
2009,07,10,11,17,21.30
2009,07,10,11,18,21.30
2009,07,10,11,19,21.30
2009,07,10,11,20,21.30
2009,07,10,11,21,21.20
2009,07,10,11,22,21.20
2009,07,10,11,23,21.10
2009,07,10,11,24,21.10
2009,07,10,11,25,21.20
2009,07,10,11,26,21.20
2009,07,10,11,27,21.20
2009,07,10,11,28,21.30
2009,07,10,11,29,21.40
2009,07,10,11,30,21.60
2009,07,10,11,31,21.70
2009,07,10,11,32,21.80
2009,07,10,11,33,21.80
2009,07,10,11,34,21.80
2009,07,10,11,35,21.90
2009,07,10,11,36,22.00
2009,07,10,11,37,22.00
2009,07,10,11,38,22.00
2009,07,10,11,39,22.00
2009,07,10,11,40,22.00
2009,07,10,11,41,22.00
2009,07,10,11,42,22.00
2009,07,10,11,43,22.10
2009,07,10,11,44,22.10
2009,07,10,11,45,22.00
2009,07,10,11,46,22.10
2009,07,10,11,47,22.10
2009,07,10,11,48,22.20
2009,07,10,11,49,22.20
2009,07,10,11,50,22.20
2009,07,10,11,51,22.10
2009,07,10,11,52,21.90
2009,07,10,11,53,21.60
2009,07,10,11,54,21.60
2009,07,10,11,55,21.60
2009,07,10,11,56,21.50
2009,07,10,11,57,21.40
2009,07,10,11,58,21.40
2009,07,10,11,59,21.50
2009,07,10,12,00,21.60
2009,07,10,12,01,21.60
2009,07,10,12,02,21.80
2009,07,10,12,03,21.90
2009,07,10,12,04,22.00
2009,07,10,12,05,22.20
2009,07,10,12,06,22.20
2009,07,10,12,07,22.30
2009,07,10,12,08,22.40
2009,07,10,12,09,22.40
2009,07,10,12,10,22.40
2009,07,10,12,11,22.40
2009,07,10,12,12,22.40
2009,07,10,12,13,22.40
2009,07,10,12,14,22.40
2009,07,10,12,15,22.30
2009,07,10,12,16,22.30
2009,07,10,12,17,22.30
2009,07,10,12,18,22.20
2009,07,10,12,19,22.20
2009,07,10,12,20,22.30
2009,07,10,12,21,22.30
2009,07,10,12,22,22.40
2009,07,10,12,23,22.40
2009,07,10,12,24,22.50
2009,07,10,12,25,22.50
2009,07,10,12,26,22.60
2009,07,10,12,27,22.60
2009,07,10,12,28,22.70
2009,07,10,12,29,22.80
2009,07,10,12,30,22.90
2009,07,10,12,31,22.90
2009,07,10,12,32,22.90
2009,07,10,12,33,22.90
2009,07,10,12,34,23.10
2009,07,10,12,35,23.20
2009,07,10,12,36,23.20
2009,07,10,12,37,23.20
2009,07,10,12,38,23.30
2009,07,10,12,39,23.30
2009,07,10,12,40,23.20
2009,07,10,12,41,23.20
2009,07,10,12,42,23.20
2009,07,10,12,43,23.20
2009,07,10,12,44,23.20
2009,07,10,12,45,23.20
2009,07,10,12,46,23.30
2009,07,10,12,47,23.30
2009,07,10,12,48,23.20
2009,07,10,12,49,23.20
2009,07,10,12,50,23.30
2009,07,10,12,51,23.20
2009,07,10,12,52,23.10
2009,07,10,12,53,23.10
2009,07,10,12,54,23.10
2009,07,10,12,55,23.20
2009,07,10,12,56,23.20
2009,07,10,12,57,23.10
2009,07,10,12,58,23.10
2009,07,10,12,59,23.10
2009,07,10,13,00,23.10
2009,07,10,13,01,23.10
2009,07,10,13,02,23.20
2009,07,10,13,03,23.20
2009,07,10,13,04,23.20
2009,07,10,13,05,23.30
2009,07,10,13,06,23.30
2009,07,10,13,07,23.30
2009,07,10,13,08,23.30
2009,07,10,13,09,23.20
2009,07,10,13,10,23.10
2009,07,10,13,11,23.10
2009,07,10,13,12,23.10
2009,07,10,13,13,23.10
2009,07,10,13,14,23.00
2009,07,10,13,15,23.00
2009,07,10,13,16,23.10
2009,07,10,13,17,23.10
2009,07,10,13,18,23.20
2009,07,10,13,19,23.30
2009,07,10,13,20,23.30
2009,07,10,13,21,23.20
2009,07,10,13,22,23.20
2009,07,10,13,23,23.20
2009,07,10,13,24,23.10
2009,07,10,13,25,23.10
2009,07,10,13,26,23.10
2009,07,10,13,27,23.00
2009,07,10,13,28,22.90
2009,07,10,13,29,22.80
2009,07,10,13,30,22.90
2009,07,10,13,31,23.10
2009,07,10,13,32,23.20
2009,07,10,13,33,23.10
2009,07,10,13,34,23.10
2009,07,10,13,35,23.00
2009,07,10,13,36,23.10
2009,07,10,13,37,23.10
2009,07,10,13,38,23.20
2009,07,10,13,39,23.40
2009,07,10,13,40,23.50
2009,07,10,13,41,23.40
2009,07,10,13,42,23.40
2009,07,10,13,43,23.60
2009,07,10,13,44,23.50
2009,07,10,13,45,23.40
2009,07,10,13,46,23.40
2009,07,10,13,47,23.10
2009,07,10,13,48,22.90
2009,07,10,13,49,22.90
2009,07,10,13,50,22.70
2009,07,10,13,51,22.70
2009,07,10,13,52,22.70
2009,07,10,13,53,22.80
2009,07,10,13,54,22.90
2009,07,10,13,55,22.90
2009,07,10,13,56,22.90
2009,07,10,13,57,23.00
2009,07,10,13,58,23.10
2009,07,10,13,59,23.20
2009,07,10,14,00,23.30
2009,07,10,14,01,23.30
2009,07,10,14,02,23.30
2009,07,10,14,03,23.30
2009,07,10,14,04,23.30
2009,07,10,14,05,23.30
2009,07,10,14,06,23.40
2009,07,10,14,07,23.60
2009,07,10,14,08,23.60
2009,07,10,14,09,23.60
2009,07,10,14,10,23.60
2009,07,10,14,11,23.60
2009,07,10,14,12,23.60
2009,07,10,14,13,23.60
2009,07,10,14,14,23.60
2009,07,10,14,15,23.60
2009,07,10,14,16,23.70
2009,07,10,14,17,23.70
2009,07,10,14,18,23.90
2009,07,10,14,19,24.10
2009,07,10,14,20,24.10
2009,07,10,14,21,24.10
2009,07,10,14,22,24.20
2009,07,10,14,23,24.20
2009,07,10,14,24,24.20
2009,07,10,14,25,24.30
2009,07,10,14,26,24.30
2009,07,10,14,27,24.30
2009,07,10,14,28,24.30
2009,07,10,14,29,24.30
2009,07,10,14,30,24.30
2009,07,10,14,31,24.20
2009,07,10,14,32,24.20
2009,07,10,14,33,24.20
2009,07,10,14,34,24.30
2009,07,10,14,35,24.30
2009,07,10,14,36,24.30
2009,07,10,14,37,24.30
2009,07,10,14,38,24.30
2009,07,10,14,39,24.30
2009,07,10,14,40,24.30
2009,07,10,14,41,24.20
2009,07,10,14,42,24.10
2009,07,10,14,43,24.10
2009,07,10,14,44,24.10
2009,07,10,14,45,24.20
2009,07,10,14,46,24.20
2009,07,10,14,47,24.20
2009,07,10,14,48,24.10
2009,07,10,14,49,24.10
2009,07,10,14,50,24.10
2009,07,10,14,51,24.10
2009,07,10,14,52,24.20
2009,07,10,14,53,24.30
2009,07,10,14,54,24.20
2009,07,10,14,55,24.10
2009,07,10,14,56,23.90
2009,07,10,14,57,23.80
2009,07,10,14,58,23.70
2009,07,10,14,59,23.70
2009,07,10,15,00,23.70
2009,07,10,15,01,23.70
2009,07,10,15,02,23.70
2009,07,10,15,03,23.80
2009,07,10,15,04,23.80
2009,07,10,15,05,23.80
2009,07,10,15,06,23.70
2009,07,10,15,07,23.70
2009,07,10,15,08,23.70
2009,07,10,15,09,23.70
2009,07,10,15,10,23.60
2009,07,10,15,11,23.50
2009,07,10,15,12,23.40
2009,07,10,15,13,23.40
2009,07,10,15,14,23.60
2009,07,10,15,15,23.60
2009,07,10,15,16,23.70
2009,07,10,15,17,23.70
2009,07,10,15,18,23.70
2009,07,10,15,19,23.70
2009,07,10,15,20,23.70
2009,07,10,15,21,23.70
2009,07,10,15,22,23.70
2009,07,10,15,23,23.90
2009,07,10,15,24,24.00
2009,07,10,15,25,24.10
2009,07,10,15,26,24.10
2009,07,10,15,27,24.20
2009,07,10,15,28,24.20
2009,07,10,15,29,24.10
2009,07,10,15,30,24.00
2009,07,10,15,31,23.90
2009,07,10,15,32,24.00
2009,07,10,15,33,24.10
2009,07,10,15,34,24.00
2009,07,10,15,35,23.90
2009,07,10,15,36,24.00
2009,07,10,15,37,24.10
2009,07,10,15,38,24.20
2009,07,10,15,39,24.30
2009,07,10,15,40,24.30
2009,07,10,15,41,24.40
2009,07,10,15,42,24.40
2009,07,10,15,43,24.50
2009,07,10,15,44,24.50
2009,07,10,15,45,24.60
2009,07,10,15,46,24.70
2009,07,10,15,47,24.80
2009,07,10,15,48,24.80
2009,07,10,15,49,24.80
2009,07,10,15,50,24.80
2009,07,10,15,51,24.80
2009,07,10,15,52,24.80
2009,07,10,15,53,24.80
2009,07,10,15,54,24.80
2009,07,10,15,55,24.90
2009,07,10,15,56,24.90
2009,07,10,15,57,24.90
2009,07,10,15,58,24.80
2009,07,10,15,59,24.90
2009,07,10,16,00,24.90
2009,07,10,16,01,24.80
2009,07,10,16,02,24.70
2009,07,10,16,03,24.70
2009,07,10,16,04,24.60
2009,07,10,16,05,24.40
2009,07,10,16,06,24.30
2009,07,10,16,07,24.30
2009,07,10,16,08,24.30
2009,07,10,16,09,24.20
2009,07,10,16,10,24.10
2009,07,10,16,11,24.10
2009,07,10,16,12,23.90
2009,07,10,16,13,23.90
2009,07,10,16,14,24.00
2009,07,10,16,15,24.10
2009,07,10,16,16,24.10
2009,07,10,16,17,24.10
2009,07,10,16,18,24.10
2009,07,10,16,19,24.10
2009,07,10,16,20,24.10
2009,07,10,16,21,24.10
2009,07,10,16,22,24.20
2009,07,10,16,23,24.20
2009,07,10,16,24,24.10
2009,07,10,16,25,24.10
2009,07,10,16,26,24.00
2009,07,10,16,27,23.90
2009,07,10,16,28,24.00
2009,07,10,16,29,24.10
2009,07,10,16,30,24.10
2009,07,10,16,31,24.10
2009,07,10,16,32,24.00
2009,07,10,16,33,23.90
2009,07,10,16,34,23.90
2009,07,10,16,35,24.00
2009,07,10,16,36,24.10
2009,07,10,16,37,24.10
2009,07,10,16,38,24.10
2009,07,10,16,39,24.20
2009,07,10,16,40,24.30
2009,07,10,16,41,24.40
2009,07,10,16,42,24.50
2009,07,10,16,43,24.60
2009,07,10,16,44,24.70
2009,07,10,16,45,24.80
2009,07,10,16,46,24.90
2009,07,10,16,47,24.90
2009,07,10,16,48,24.90
2009,07,10,16,49,24.80
2009,07,10,16,50,24.80
2009,07,10,16,51,24.60
2009,07,10,16,52,24.60
2009,07,10,16,53,24.60
2009,07,10,16,54,24.60
2009,07,10,16,55,24.50
2009,07,10,16,56,24.50
2009,07,10,16,57,24.50
2009,07,10,16,58,24.40
2009,07,10,16,59,24.40
2009,07,10,17,00,24.50
2009,07,10,17,01,24.50
2009,07,10,17,02,24.60
2009,07,10,17,03,24.80
2009,07,10,17,04,24.90
2009,07,10,17,05,24.90
2009,07,10,17,06,25.00
2009,07,10,17,07,25.00
2009,07,10,17,08,25.10
2009,07,10,17,09,25.00
2009,07,10,17,10,25.00
2009,07,10,17,11,25.00
2009,07,10,17,12,25.10
2009,07,10,17,13,25.10
2009,07,10,17,14,25.20
2009,07,10,17,15,25.20
2009,07,10,17,16,25.30
2009,07,10,17,17,25.30
2009,07,10,17,18,25.10
2009,07,10,17,19,24.80
2009,07,10,17,20,24.60